Weather History for KHWD - May, 2013

Change the Weather History Date:

Tuesday, May 14, 2013

  Actual Average Record
Temperature  
Mean Temperature 61 °F 60 °F  
Max Temperature 67 °F 68 °F 91 °F (2014)
Min Temperature 55 °F 53 °F 47 °F (2011)
Degree Days  
Heating Degree Days 4    
Month to date heating degree days 33  
Since 1 July heating degree days 2203  
Cooling Degree Days 0    
Month to date cooling degree days 30  
Year to date cooling degree days 43  
Growing Degree Days 10 (Base 50)    
Moisture  
Dew Point 49 °F    
Average Humidity 70    
Maximum Humidity 83    
Minimum Humidity 56    
Precipitation  
Precipitation 0.00 in - 0.26 in (2011)
Month to date precipitation 0.00  
Year to date precipitation 1.45  
Since 1 July precipitation 7.43  
Sea Level Pressure  
Sea Level Pressure 30.01 in    
Wind  
Wind Speed 10 mph (West)    
Max Wind Speed 20 mph    
Max Gust Speed 24 mph    
Visibility 10 miles    
Events      
T = Trace of Precipitation, MM = Missing Value Source: NWS Daily Summary

Daily Weather History Graph

Daily Weather History Graph

Search for Another Location

Airport or City:

Trip Planner

Search our weather history database for the weather conditions in past years. The results will help you decide how hot, cold, wet, or windy it might be!

Date:

Astronomy

May. 14, 2013 Rise Set
Actual Time 5:59 AM PDT 8:10 PM PDT
Civil Twilight 5:30 AM PDT 8:40 PM PDT
Nautical Twilight 4:54 AM PDT 9:16 PM PDT
Astronomical Twilight 4:15 AM PDT 9:55 PM PDT
Moon 9:43 AM PDT (5/14) No Moon Set
Length of Visible Light 15h 09m
Length of Day
14h 11m
Waxing Crescent, 19% of the Moon is Illuminated
May 14
Waxing Crescent
May 17
First Quarter
May 24
Full
May 31
Last Quarter
Jun 8
New

Hourly Weather History & Observations

Time (PDT) Temp. Dew Point Humidity Pressure Visibility Wind Dir Wind Speed Gust Speed Precip Events Conditions
12:54 AM 57.0 °F 51.1 °F 81% 30.00 in 10.0 mi West 5.8 mph - N/A   Clear
1:54 AM 57.0 °F 50.0 °F 77% 30.00 in 10.0 mi WSW 9.2 mph - N/A   Clear
2:54 AM 55.9 °F 50.0 °F 80% 29.99 in 10.0 mi West 11.5 mph - N/A   Clear
3:54 AM 55.9 °F 50.0 °F 80% 29.99 in 9.0 mi West 11.5 mph - N/A   Scattered Clouds
4:18 AM 55.4 °F 50.0 °F 82% 29.97 in 9.0 mi West 10.4 mph - N/A   Mostly Cloudy
4:54 AM 55.0 °F 48.9 °F 80% 30.00 in 9.0 mi WSW 6.9 mph - N/A   Scattered Clouds
5:03 AM 55.4 °F 48.2 °F 77% 29.97 in 9.0 mi West 6.9 mph - N/A   Mostly Cloudy
5:54 AM 55.9 °F 50.0 °F 80% 29.99 in 9.0 mi Calm Calm - N/A   Overcast
6:39 AM 55.4 °F 48.2 °F 77% 29.97 in 9.0 mi Calm Calm - N/A   Scattered Clouds
6:54 AM 55.9 °F 50.0 °F 80% 29.99 in 9.0 mi Calm Calm - N/A   Clear
7:41 AM 57.2 °F 50.0 °F 77% 29.97 in 9.0 mi WSW 5.8 mph - N/A   Mostly Cloudy
7:54 AM 57.9 °F 50.0 °F 75% 30.00 in 10.0 mi SSW 3.5 mph - N/A   Overcast
8:15 AM 59.0 °F 51.8 °F 77% 29.97 in 10.0 mi Variable 6.9 mph - N/A   Mostly Cloudy
8:27 AM 60.8 °F 51.8 °F 72% 29.97 in 10.0 mi SSW 9.2 mph - N/A   Scattered Clouds
8:54 AM 61.0 °F 51.1 °F 70% 30.01 in 10.0 mi South 10.4 mph - N/A   Clear
9:41 AM 62.6 °F 51.8 °F 68% 29.99 in 10.0 mi SSW 8.1 mph - N/A   Mostly Cloudy
9:54 AM 63.0 °F 52.0 °F 67% 30.01 in 10.0 mi Variable 6.9 mph - N/A   Mostly Cloudy
10:19 AM 62.6 °F 51.8 °F 68% 29.99 in 10.0 mi West 8.1 mph - N/A   Scattered Clouds
10:54 AM 64.0 °F 52.0 °F 65% 30.02 in 10.0 mi West 9.2 mph - N/A   Clear
11:54 AM 63.0 °F 51.1 °F 65% 30.04 in 10.0 mi WNW 9.2 mph - N/A   Clear
12:54 PM 64.9 °F 50.0 °F 58% 30.03 in 10.0 mi West 13.8 mph - N/A   Clear
1:54 PM 64.9 °F 50.0 °F 58% 30.02 in 10.0 mi WNW 17.3 mph - N/A   Clear
2:54 PM 64.9 °F 50.0 °F 58% 30.02 in 10.0 mi West 13.8 mph - N/A   Clear
3:54 PM 64.0 °F 48.9 °F 58% 30.02 in 10.0 mi West 17.3 mph - N/A   Clear
4:54 PM 62.1 °F 48.0 °F 60% 30.01 in 9.0 mi West 11.5 mph - N/A   Clear
5:54 PM 62.1 °F 48.0 °F 60% 30.01 in 10.0 mi West 11.5 mph - N/A   Clear
6:54 PM 61.0 °F 48.0 °F 62% 30.01 in 9.0 mi WSW 9.2 mph - N/A   Clear
7:54 PM 59.0 °F 46.9 °F 64% 30.02 in 9.0 mi West 12.7 mph - N/A   Clear
8:54 PM 57.0 °F 46.0 °F 67% 30.04 in 10.0 mi West 12.7 mph - N/A   Clear
9:54 PM 55.9 °F 46.0 °F 69% 30.06 in 10.0 mi West 11.5 mph 20.7 mph N/A   Clear
10:54 PM 55.9 °F 46.0 °F 69% 30.08 in 10.0 mi WSW 12.7 mph - N/A   Clear
11:54 PM 55.0 °F 46.0 °F 72% 30.08 in 10.0 mi WSW 11.5 mph - N/A   Clear